79P/du Toit-Hartley (2013)

Japanese version
Home page
Updated on June 11, 2016

---------------------------------------------------------------------

* Profile

* Orbital Elements

Epoch 2013 Aug. 16.0 TT = JDT 2456520.5
T 2013 Aug. 23.29116 TT                                 Nakano
q   1.1238071            (2000.0)            P               Q
n   0.19493761     Peri.  281.68802     -0.92356085     +0.37964056
a   2.9458160      Node   280.64198     -0.32696384     -0.85315448
e   0.6185074      Incl.    3.14559     -0.20032475     -0.35777154
P   5.06
From 190 observations 1986 Dec. 27-2013 Feb. 7, mean residual 0".7.
     Nongravitational parameters A1 = -0.14, A2 = +0.0006.

* Magnitudes Graph

        m1 = 15.5 + 5 log d + 10.0 log r(t + 20)

---------------------------------------------------------------------

The orbital elements are published on M.P.E.C. 2015-M77.
The magnitudes graphs are made with Comet for Windows.

---------------------------------------------------------------------

Copyright(C) Seiichi Yoshida (comet@aerith.net). All rights reserved.